Weather in Troitsa

Russia / Pskov Oblast     56°02′14″N   30°40′03″E
temp.,
°C
wind,
m/s
gust,
m/s
humid.,
%
clouds,
%
prec.,
mm/h
press.,
hPa
HPBL,
m
8 may, sat
sat800:00+7sse51194100 1.8 10041155
03:00+7sw3897100 3.6 1004691
06:00+4w4897100 0.1 1005487
09:00+4wnw4791100 0.1 1007627
12:00+6wnw4675100 0.1 10081040
15:00+7nw5762100 0.1 10081438
18:00+6nw4867100 0.0 10091156
21:00+3wnw257940 0.0 101088
9 may, sun
sun900:00+2wnw411895 0.0 1012453
03:00+1wnw411905 0.0 1014458
06:00+1wnw312845 0.0 1017406
09:00+6nw47551 0.0 1018831
12:00+10nw473930 0.0 10202076
15:00+12nw4636100 0.0 10202529
18:00+12wnw344372 0.0 10222080
21:00+6ssw22655 0.0 102412
10 may, mon
mon1000:00+4s247312 0.0 102570
03:00+3s3117358 0.0 1026230
06:00+5s3127298 0.0 1026305
09:00+9s4116293 0.0 1027423
12:00+15ssw574985 0.0 10261037
15:00+17ssw4649100 0.0 10261291
18:00+16s35585 0.0 10261215
21:00+10sse3786100 0.0 1027132
11 may, tue
tue1100:00+8s288999 0.0 1028152
03:00+6sse279010 0.0 1029131
06:00+6sse288625 0.0 1029168
09:00+13sse36565 0.0 1029465
12:00+17sse45435 0.0 10281213
15:00+19sse35427 0.0 10271409
18:00+19se355221 0.0 10251239
21:00+12se39805 0.0 1025156
12 may, wed
wed1200:00+9se298435 0.0 1026152
03:00+8se258719 0.0 102597
06:00+9e23900 0.0 102577
09:00+15e36630 0.0 1024471
12:00+20e58490 0.0 10221197
15:00+18ese5107058 0.4 10211051
18:00+16se498329 1.4 10211099
21:00+12se259311 1.5 1021164